軌道要素
Epoch 2021 Nov. 2.0 TT = JDT 2459520.5
T 2021 Oct. 17.43264 TT MPCW
q 1.7201108 (2000.0) P Q
n 0.15399245 Peri. 115.25966 +0.55951224 +0.82878736
a 3.4472261 Node 188.77421 -0.77720144 +0.52146268
e 0.5010160 Incl. 2.85094 -0.28793049 +0.20294873
P 6.40
From 959 observations 1996 July 24-2015 Dec. 31, mean residual 0".7.
Nongravitational parameters A1 = +0.50, A2 = -0.0071.
|